This is the latest recevied weather packets stored in our database for station/object KI7JYE. If no packets are shown the sender has not sent any weather packets the latest 10 day(s).
| Time | Temp. | Humidity | Pressure | Rain* | Wind** | Luminosity | Snow |
|---|---|---|---|---|---|---|---|
| 1778024685 | 18.89° C | 68% | 1014.5 hPa | 0 mm | - | 244 W/m² | - |
| 1778024381 | 18.89° C | 70% | 1014.3 hPa | 0 mm | - | 230 W/m² | - |
| 1778024079 | 18.89° C | 68% | 1014.6 hPa | 0 mm | - | 224 W/m² | - |
| 1778023776 | 18.89° C | 67% | 1014.6 hPa | 0 mm | - | 208 W/m² | - |
| 1778023474 | 18.89° C | 69% | 1014.9 hPa | 0 mm | - | 261 W/m² | - |
| 1778023171 | 18.33° C | 69% | 1014.5 hPa | 0 mm | - | 279 W/m² | - |
| 1778022868 | 17.78° C | 69% | 1014.4 hPa | 0 mm | - | 261 W/m² | - |
| 1778022567 | 17.78° C | 70% | 1014.6 hPa | 0 mm | - | 292 W/m² | - |
| 1778022264 | 18.89° C | 68% | 1014.5 hPa | 0 mm | - | 266 W/m² | - |
| 1778021960 | 18.33° C | 68% | 1014.5 hPa | 0 mm | - | 331 W/m² | - |
| 1778021657 | 18.33° C | 67% | 1014.8 hPa | 0 mm | - | 325 W/m² | - |
| 1778021352 | 18.89° C | 66% | 1014.8 hPa | 0 mm | - | 301 W/m² | - |
| 1778021050 | 17.22° C | 69% | 1014.9 hPa | 0 mm | - | 332 W/m² | - |
| 1778020747 | 17.78° C | 70% | 1014.8 hPa | 0 mm | - | 288 W/m² | - |
| 1778020444 | 17.78° C | 69% | 1015 hPa | 0 mm | - | 293 W/m² | - |
| 1778020140 | 17.78° C | 69% | 1014.8 hPa | 0 mm | - | 298 W/m² | - |
| 1778019836 | 18.89° C | 69% | 1015 hPa | 0 mm | - | 460 W/m² | - |
| 1778019533 | 17.78° C | 69% | 1015.1 hPa | 0 mm | - | 801 W/m² | - |
| 1778019230 | 17.78° C | 69% | 1015 hPa | 0 mm | - | 355 W/m² | - |
| 1778018927 | 17.78° C | 69% | 1015.2 hPa | 0 mm | - | 305 W/m² | - |
| 1778018624 | 17.78° C | 69% | 1015.3 hPa | 0 mm | - | 294 W/m² | - |
| 1778018322 | 17.22° C | 70% | 1015.2 hPa | 0 mm | - | 276 W/m² | - |
| 1778018020 | 17.22° C | 72% | 1015.3 hPa | 0 mm | - | 248 W/m² | - |
| 1778017718 | 17.22° C | 71% | 1015.2 hPa | 0 mm | - | 232 W/m² | - |
| 1778017415 | 17.22° C | 72% | 1015.1 hPa | 0 mm | - | 216 W/m² | - |
* Rain latest hour (hover to see other rain measurements)
** Current wind speed in m/s (hover to see current wind gust speed)